Location: Saluda
(35.2377°N, 82.3468°W)
Time: 20:40:10
(UTC+00:00)

Vanguard 3 - Pass Details

Date: 10 October 2022
Orbit: 509 x 3255 km, 33.3° (Epoch: 01 December)

Event Time Altitude Azimuth Distance (km) Brightness Sun altitude
Rises 13:34:31 0° 266° (W) 2,603 9.3 23.1°
Reaches altitude 10° 13:36:34 10° 264° (W) 1,724 8.5 23.4°
Maximum altitude 13:40:14 69° 180° (S) 605 7.1 24.1°
Drops below altitude 10° 13:45:00 10° 97° (E) 2,222 10.8 24.9°
Sets 13:47:58 0° 95° (E) 3,461 11.4 25.5°
